{"data":{"norad_id":48401,"epoch":"2026-09-19T04:28:56.166816Z","epoch_age_seconds":131656,"freshness":"FRESH","line1":"1 48401U 21038BA  26262.18676119 -.00001243  00000+0 -28279-4 0  9991","line2":"2 48401  53.1603 152.3932 0001233  85.8401 274.2741 15.31701323297086","mean_motion":15.31701323,"eccentricity":0.0001233,"inclination_deg":53.1603,"raan_deg":152.3932,"arg_perigee_deg":85.8401,"mean_anomaly_deg":274.2741,"bstar":-2.8279e-5,"rev_number":29708,"period_min":94.013106757629,"perigee_km":469.89158538709,"apogee_km":471.58051748157,"semimajor_km":6848.8730514343,"source":"CELESTRAK","updated_at":"2026-09-20T09:00:38.947381Z"}}